Regional Weather Roundup
Issued by NWS

Home | Current Version | Previous Version | Graphics & Text | Print | Product List | Glossary On
Versions: 1 2 3 4 5 6 7 8 9 10 11 12 13 14 15 16 17 18 19 20 21 22 23 24 25 26 27 28 29 30 31 32 33 34 35 36 37 38 39 40 41 42 43 44 45 46 47 48 49 50
000
ASUS43 KDTX 252110
RWRMI
MICHIGAN HOURLY REGIONAL WEATHER ROUNDUP
NATIONAL WEATHER SERVICE DETROIT/PONTIAC MI
500 PM EDT SAT APR 25 2015

NOTE: "FAIR" INDICATES FEW OR NO CLOUDS BELOW 12,000 FEET WITH NO
SIGNIFICANT WEATHER AND/OR OBSTRUCTION TO VISIBILITY.

MIZ047>049-052>055-059>063-066>070-074>076-081>083-252200-
SOUTHEAST LOWER MICHIGAN

CITY           SKY/WX    TMP DP  RH WIND       PRES   REMARKS
ADRIAN         CLOUDY    47  28  47 E12       29.81S
ALMA           MOSUNNY   51  27  39 NE15G21   29.84S
ANN ARBOR      MOSUNNY   51  26  37 E8        29.80F
BAD AXE        SUNNY     45  23  42 NE14G20   29.88S
CARO           MOSUNNY   49  24  36 CALM      29.85R
DETROIT CITY   MOSUNNY   50  29  44 E12       29.81S
DETROIT        PTSUNNY   53  23  31 NE8G21    29.81F
FLINT          PTSUNNY   54  24  31 NE13G23   29.83R
GROSSE ILE     PTSUNNY   50  30  46 E6        29.79S
HILLSDALE      CLOUDY    46  26  44 E9        29.79S
HOWELL         MOSUNNY   54  25  33 CALM      29.79F

CITY           SKY/WX    TMP DP  RH WIND       PRES   REMARKS
JACKSON        CLOUDY    50  31  48 E13       29.79S
LAMBERTVILLE   CLOUDY    46  28  49 E6        29.80S
LANSING        MOSUNNY   56  27  32 E7        29.80F
LAPEER         FAIR      49  19  30 E8        29.84S
MASON          MOSUNNY   53  26  35 SE3       29.79F
MONROE         CLOUDY    45  32  61 E8        29.80S
MT. CLEMENS    PTSUNNY   52  24  33 NE8       29.79S
PONTIAC        MOSUNNY   53  22  29 E9        29.79S
PORT HOPE        N/A     40  28  62 N10       29.88F WCI  33
PORT HURON     PTSUNNY   45  28  53 N12       29.84S
TRI CITIES     FAIR      49  30  48 NE18      29.86S
MIDLAND        FAIR      49  27  41 NE12      29.86F
TROY           MOSUNNY   53  21  28 E12G20    29.82S
SAGINAW HB     MOSUNNY   50  28  43 NE15G22   29.84S
$$
MIZ043>046-050>051-056>058-064>065-071>073-077>080-252200-
SOUTHWEST LOWER MICHIGAN

CITY           SKY/WX    TMP DP  RH WIND       PRES   REMARKS
BATTLE CREEK   CLOUDY    50  36  58 E7        29.79F
BENTON HARBOR  LGT RAIN  47  42  83 NE10      29.77F
BIG RAPIDS     SUNNY     54  19  25 E7G20     29.81S
COLDWATER      CLOUDY    46  31  54 E6        29.79S
FREMONT        FAIR      55  22  26 SE8       29.79F
HOLLAND        CLOUDY    54  36  50 E9        29.79F
GRAND RAPIDS   PTSUNNY   55  30  38 E13       29.79F
IONIA          FAIR      55  27  33 E12G18    29.79F
KALAMAZOO      CLOUDY    50  37  61 VRB6      29.79F
LUDINGTON      PTSUNNY   53  24  31 N14G20    29.82S
MARSHALL       CLOUDY    48  34  57 E6        29.78F
MOUNT PLEASANT MOSUNNY   52  19  28 NE10G17   29.84S
MUSKEGON       PTSUNNY   55  30  38 E13       29.80F
SOUTH HAVEN    CLOUDY    50  38  62 E8        29.78F
$$
MIZ016>042-252200-
NORTHERN LOWER MICHIGAN

CITY           SKY/WX    TMP DP  RH WIND       PRES   REMARKS
BEAVER ISLAND  SUNNY     49  18  28 E13G21    29.92F
BELLAIRE       MOSUNNY   56  16  20 NE9       29.85F
CADILLAC       MOSUNNY   54  18  24 NE8G17    29.81F
CHARLEVOIX     MOSUNNY   48  28  45 N12       29.91S
FRANKFORT      MOSUNNY   51  19  27 N13G22    29.85S
GAYLORD        SUNNY     52  20  28 VRB7      29.85S
GRAYLING       CLOUDY    53  17  25 E7G16     29.84F
HARBOR SPRINGS SUNNY     51  19  28 E14       29.90S
HOUGHTON LAKE  MOSUNNY   52  21  29 SE13G21   29.83F
MANISTEE       MOSUNNY   54  25  32 NW12      29.82F
OSCODA         SUNNY     45  20  37 NE9       29.90F
PELLSTON       SUNNY     51  20  29 E12       29.91F
ROGERS CITY    SUNNY     45  20  37 NE3       29.93S
TRAVERSE CITY  CLOUDY    49  25  39 N9        29.84F
$$
MIZ007>008-015-252200-
EASTERN UPPER MICHIGAN

CITY           SKY/WX    TMP DP  RH WIND       PRES   REMARKS
KINROSS        SUNNY     48  21  34 N9        29.90S
MACKINAC ISLAN SUNNY     48  22  36 SE6       29.92S
NEWBERRY       SUNNY     49  25  39 NE10G16   29.91S
S. S. MARIE    SUNNY     47  22  37 NW12      29.91S
MUNISING         N/A     38  28  67 N9        29.97S WCI  31
$$
MIZ004>006-011>014-085-252200-
CENTRAL UPPER MICHIGAN

CITY           SKY/WX    TMP DP  RH WIND       PRES   REMARKS
MANISTIQUE     SUNNY     47  24  41 S7        29.93S
ESCANABA       SUNNY     48  21  34 SE13      29.91F
MENOMINEE      MOSUNNY   45  16  31 E17       29.91F
SAWYER-GWINN   SUNNY     41  21  45 NE20      29.94F
$$
MIZ001>003-009>011-084-252200-
WESTERN UPPER MICHIGAN

CITY           SKY/WX    TMP DP  RH WIND       PRES   REMARKS
IRON MOUNTAIN  SUNNY     55  16  21 N10G18    29.87F
HOUGHTON       SUNNY     43  21  41 E12G18    29.98F
COPPER HARBOR    N/A     37  30  75 NE3       30.02S
IRONWOOD       SUNNY     46  27  46 N12G21    29.90S
$$

ABBREVIATIONS USED IN REMARKS
   TC - TEMPERATURE IN CELSIUS
  WCI - WIND CHILL INDEX
   HX - HEAT INDEX
  VSB - VISIBILITY



USA.gov is the U.S. government's official web portal to all federal, state and local government web resources and services.